DF4WC-13 Weather Reports


Display with metric or nautical units.
time (UTC)temp
F
wind
direction
speed
MPH
gust
MPH
rain 1hr
in
rain 24hr
in
rain mn
in
humidity
%
barometer
mb
20260507001720 -23 0 0.0 0.0 0.00 0.02 0.00 41 814.4
20260506234720 -23 0 0.0 0.0 0.00 0.02 0.00 42 814.4
20260506231720 -23 0 0.0 0.0 0.00 0.02 0.00 42 814.4
20260506224720 -23 0 0.0 0.0 0.00 0.04 0.00 42 814.4
20260506221720 -23 0 0.0 0.0 0.00 0.07 0.00 41 814.4
20260506214720 -23 0 0.0 0.0 0.00 0.15 0.00 41 814.4
20260506211720 -23 0 0.0 0.0 0.00 0.15 0.00 42 814.4
20260506204720 -23 0 0.0 0.0 0.00 0.15 0.00 42 814.4
20260506201720 -23 0 0.0 0.0 0.00 0.15 0.00 43 814.4
20260506194720 -23 0 0.0 0.0 0.00 0.15 0.00 39 814.4
20260506191720 -23 0 0.0 0.0 0.00 0.15 0.00 42 814.4
20260506184720 -23 0 0.0 0.0 0.00 0.15 0.00 42 814.4
20260506181720 -23 0 0.0 0.0 0.00 0.15 0.00 42 814.4
20260506174720 -23 0 0.0 0.0 0.00 0.15 0.00 41 814.4
20260506171718 -23 0 0.0 0.0 0.00 0.15 0.00 32 814.4
20260506164719 -23 0 0.0 0.0 0.00 0.17 0.00 25 814.4
20260506161719 -23 0 0.0 0.0 0.00 0.17 0.00 24 814.4
20260506154719 -23 0 0.0 0.0 0.00 0.17 0.00 23 814.4
20260506151719 -23 0 0.0 1.0 0.00 0.21 0.00 22 814.4
20260506144719 -23 0 0.0 0.0 0.00 0.31 0.00 22 814.4
20260506141719 -23 0 0.0 1.0 0.00 0.32 0.00 20 814.4
20260506134719 -23 0 0.0 0.0 0.00 0.34 0.00 20 814.4
20260506131719 -23 0 0.0 0.0 0.00 0.34 0.00 20 814.4
20260506124719 -23 0 0.0 0.0 0.00 0.34 0.00 20 814.4
20260506121719 -23 0 0.0 0.0 0.00 0.34 0.00 20 814.4
20260506114719 -23 0 0.0 1.0 0.00 0.34 0.00 21 814.4
20260506111719 -23 0 0.0 0.0 0.00 0.34 0.00 22 814.4
20260506104719 -23 0 0.0 0.0 0.00 0.34 0.00 21 814.4
20260506101719 -23 0 0.0 0.0 0.00 0.34 0.00 22 814.4
20260506094719 -23 0 0.0 0.0 0.00 0.34 0.00 22 814.4
20260506091719 -23 0 0.0 0.0 0.00 0.34 0.00 23 814.4
20260506084719 -23 0 0.0 0.0 0.00 0.34 0.00 25 814.4
20260506081719 -23 0 0.0 0.0 0.00 0.34 0.00 23 814.4
20260506071719 -23 0 0.0 0.0 0.00 0.34 0.00 23 814.4
20260506061719 -23 0 0.0 1.0 0.00 0.34 0.00 27 814.4
20260506044719 -23 0 0.0 0.0 0.00 0.34 0.00 76 814.4
20260506041719 -23 0 0.0 0.0 0.00 0.34 0.00 76 814.4
20260506034719 -23 0 0.0 0.0 0.00 0.34 0.00 74 814.4
20260506031719 -23 0 0.0 0.0 0.00 0.34 0.00 74 814.4
20260506024719 -23 0 0.0 0.0 0.02 0.34 0.00 75 814.4
20260506021719 -23 0 0.0 0.0 0.00 0.32 0.00 74 814.4
20260506014720 -23 0 0.0 0.0 0.00 0.32 0.00 74 814.4
20260506011720 -23 0 0.0 0.0 0.00 0.32 0.00 73 814.4
20260506004720 -23 0 0.0 0.0 0.00 0.32 0.00 72 814.4